Calgary / Springba, Alberta

7:23 PM MST on January 19, 2017 (GMT -0700)
Springbank

Weather History for CYBW - December, 2013

Change the Weather History Date:

Monday, December 16, 2013

  Actual Average Record
Temperature  
Mean Temperature 20 °F -  
Max Temperature 28 °F 26 °F 48 °F (1997)
Min Temperature 12 °F 7 °F -29 °F (2000)
Degree Days  
Heating Degree Days 45    
Moisture  
Dew Point 15 °F    
Average Humidity 80    
Maximum Humidity 93    
Minimum Humidity 58    
Precipitation  
Precipitation 0.08 in - - ()
Sea Level Pressure  
Sea Level Pressure 30.21 in    
Wind  
Wind Speed 5 mph ()    
Max Wind Speed 14 mph    
Max Gust Speed -    
Visibility 15.7 miles    
Events      
Averages and records for this station are not official NWS values.
T = Trace of Precipitation, MM = Missing Value Source: Averaged Metar Reports

Daily Weather History Graph

Daily Weather History Graph

Search for Another Location

Airport or City:

Trip Planner

Search our weather history database for the weather conditions in past years. The results will help you decide how hot, cold, wet, or windy it might be!

Date:

Astronomy

Dec. 16, 2013 Rise Set
Actual Time 8:35 AM MST 4:30 PM MST
Civil Twilight 7:56 AM MST 5:10 PM MST
Nautical Twilight 7:13 AM MST 5:53 PM MST
Astronomical Twilight 6:32 AM MST 6:33 PM MST
Moon 4:31 PM MST (12/16) 7:40 AM MST (12/16)
Length of Visible Light 9h 14m
Length of Day
7h 55m
Full, 100% of the Moon is Illuminated
Dec 16
Full
Dec 17
Full
Dec 25
Last Quarter
Jan 1
New
Jan 7
First Quarter

Hourly Weather History & Observations

Time (MST) Temp. Windchill Dew Point Humidity Pressure Visibility Wind Dir Wind Speed Gust Speed Precip Events Conditions
5:00 AM 22 °F - 19 °F 85% 30.04 in 15 mi South 4.6 mph - -   Clear
5:00 AM 21.2 °F 14.9 °F 19.4 °F 93% 30.04 in 15.0 mi South 4.6 mph - N/A   Mostly Cloudy
6:00 AM 23.0 °F - 19.4 °F 86% 30.05 in 15.0 mi Calm Calm - N/A   Overcast
7:00 AM 15.8 °F 10.2 °F 14.0 °F 93% 30.10 in 15.0 mi WNW 3.5 mph - N/A   Overcast
8:00 AM 17.6 °F 8.2 °F 15.8 °F 93% 30.12 in 15.0 mi NW 6.9 mph - N/A   Overcast
9:00 AM 15.8 °F 6.1 °F 14.0 °F 93% 30.15 in 30.0 mi WNW 6.9 mph - N/A   Overcast
10:00 AM 24.8 °F - 17.6 °F 74% 30.17 in 30.0 mi Calm Calm - N/A   Overcast
11:00 AM 25 °F - 16 °F 58% 30.19 in 28 mi East 3.5 mph - -   Overcast
11:00 AM 24.8 °F 20.5 °F 15.8 °F 69% 30.19 in 30.0 mi East 3.5 mph - N/A   Overcast
12:00 PM 24.8 °F 19.1 °F 15.8 °F 69% 30.20 in 30.0 mi SW 4.6 mph - N/A   Overcast
1:00 PM 28.4 °F 19.7 °F 19.4 °F 69% 30.19 in 30.0 mi SE 9.2 mph - N/A   Mostly Cloudy
2:00 PM 26.6 °F 18.2 °F 17.6 °F 69% 30.21 in 30.0 mi SE 8.1 mph - N/A   Mostly Cloudy
3:00 PM 24.8 °F 13.4 °F 15.8 °F 69% 30.23 in 30.0 mi SSE 12.7 mph - N/A   Scattered Clouds
3:15 PM 21.2 °F 8.9 °F 14.0 °F 74% 30.25 in 30.0 mi ESE 12.7 mph - N/A   Scattered Clouds
4:00 PM 21.2 °F 12.6 °F 15.8 °F 80% 30.27 in 30.0 mi SE 6.9 mph - N/A   Scattered Clouds
5:00 PM 22 °F - 15 °F 65% 30.29 in 19 mi ESE 10.4 mph - -   Partly Cloudy
5:00 PM 21.2 °F 9.5 °F 15.8 °F 80% 30.29 in 20.0 mi SE 11.5 mph - N/A   Scattered Clouds
6:00 PM 17.6 °F 5.7 °F 14.0 °F 86% 30.31 in 15.0 mi ESE 10.4 mph - N/A   Scattered Clouds
7:00 PM 12.2 °F 6.1 °F 8.6 °F 85% 30.34 in 15.0 mi West 3.5 mph - N/A   Scattered Clouds
8:00 PM 15.8 °F 6.1 °F 12.2 °F 86% 30.33 in 15.0 mi ESE 6.9 mph - N/A   Clear
9:00 PM 12.2 °F 2.9 °F 8.6 °F 85% 30.34 in 15.0 mi SSE 5.8 mph - N/A   Clear
9:17 PM 15.8 °F 1.4 °F 12.2 °F 86% 30.31 in 15.0 mi South 13.8 mph - N/A   Clear
10:00 PM 14.0 °F 0.5 °F 10.4 °F 86% 30.29 in 15.0 mi SSE 11.5 mph - N/A   Clear